Date,TemperatureHighF,TemperatureAvgF,TemperatureLowF,DewpointHighF,DewpointAvgF,DewpointLowF,HumidityHigh,HumidityAvg,HumidityLow,PressureMaxIn,PressureMinIn,WindSpeedMaxMPH,WindSpeedAvgMPH,GustSpeedMaxMPH,PrecipitationSumIn
2013-7-7,86.5,82.2,78.7,78.9,76.4,75.1,89,83,74,29.94,29.91,16,4,16,0.00
2013-7-9,77.1,74.3,71.9,74.0,72.2,69.4,98,93,84,30.05,30.00,11,3,13,0.00
2013-7-10,80.5,75.8,71.9,77.1,73.7,70.7,99,93,87,30.02,29.79,21,6,21,0.00
2013-7-11,77.3,71.6,0.0,74.1,69.8,0.0,97,90,89,29.89,29.78,16,2,16,0.02
2013-7-12,79.3,73.1,69.1,71.3,67.7,63.7,97,83,74,30.13,29.89,18,5,19,0.00
2013-7-13,75.8,71.5,68.1,73.3,69.9,65.3,99,95,85,30.29,30.12,14,2,14,0.01
2013-7-14,83.6,76.5,71.1,77.2,74.3,70.8,100,93,77,30.30,30.20,11,2,14,0.00
2013-7-15,91.2,79.6,71.8,78.9,75.0,70.9,98,87,59,30.20,30.09,14,1,15,0.00
2013-7-16,92.6,82.3,74.1,75.8,72.9,69.7,93,75,49,30.14,30.08,16,2,16,0.00
2013-7-17,87.0,78.9,72.1,78.2,74.2,70.8,97,86,72,30.16,30.03,12,2,12,0.00
2013-7-18,86.3,79.6,73.0,79.4,75.8,71.9,97,88,76,30.03,29.93,10,2,14,0.00
2013-7-19,86.3,80.0,75.6,80.3,76.5,73.5,98,89,78,29.93,29.75,23,4,23,0.00
2013-7-20,87.3,79.9,76.4,78.5,75.4,73.1,95,86,69,29.81,29.67,18,3,18,0.00
2013-7-21,79.5,74.2,69.9,73.6,68.7,65.1,95,83,63,29.96,29.81,10,1,10,0.05
2013-7-22,77.3,72.7,70.3,72.9,70.5,69.2,98,93,83,29.96,29.83,12,2,12,0.00
2013-7-23,80.9,75.0,71.2,77.9,73.3,70.3,99,95,80,29.83,29.55,15,3,15,0.21
2013-7-24,82.3,75.3,69.8,76.4,70.5,60.8,99,86,69,29.88,29.58,15,2,15,0.00
2013-7-25,70.6,62.0,57.9,61.5,58.1,53.8,97,88,72,30.05,29.88,19,6,19,1.26
2013-7-26,70.6,65.5,60.3,68.2,63.7,58.9,98,94,87,30.04,29.93,17,3,17,0.33
2013-7-27,79.9,72.2,67.0,71.2,68.6,66.0,98,89,64,30.06,29.96,10,4,14,0.00
2013-7-28,77.3,72.4,67.2,71.9,69.0,62.2,98,90,63,29.99,29.93,12,2,12,0.00
2013-7-29,81.8,74.8,66.4,75.9,72.0,64.4,99,91,80,30.05,29.94,10,1,10,0.00
2013-7-30,78.8,70.9,63.5,69.1,63.6,57.9,95,78,57,30.11,30.04,18,3,19,0.00
2013-7-31,77.0,69.7,59.3,67.7,64.1,58.4,97,83,65,30.13,30.04,14,2,14,0.00